[[{"header":{"parameterUnit":"m.s-1","parameterCategory":1,"la1":30.2991,"la2":30.254,"lo1":-89.0895,"lo2":-89.0444,"dy":0.0017,"dx":0.0017,"nx":28,"ny":28,"refTime":"2023-10-31T03:00:00:Z","depth":0,"parameterNumber":2,"parameterNumberName":"U-component_of_WINDS"},"data":[0,0,0,0,0,0,0,0,0,0,0,0,0,0,0,0,0,0,0,0,0,0,0,0,0,0,0,0,0,0,0,0,0,0,0,0,0,0,0,0,0,0,0,0,0,0,0,0,0,0,0,0,0,0,0,0,0,0,-1.2987,-1.2988,0,-1.3093,-1.3095,-1.3096,-1.3056,-1.3054,-1.3051,-1.3049,-1.316,-1.3165,-1.317,0,0,0,0,0,0,0,0,0,0,0,0,0,-1.2751,-1.2755,-1.2987,-1.2988,-1.299,-1.3093,-1.3095,-1.3096,-1.3057,-1.3054,-1.3051,-1.3048,-1.3158,-1.3164,-1.317,0,0,0,0,0,0,0,0,0,0,0,0,0,-1.2855,-1.2757,-1.2987,-1.2982,-1.2983,-1.3093,-1.3095,-1.3096,-1.3057,-1.3054,-1.305,-1.3047,-1.3156,-1.3163,-1.3171,-1.3292,0,0,-1.3195,-1.3198,0,0,0,0,0,0,0,0,-1.2849,-1.2864,-1.2982,-1.2983,-1.2984,-1.3058,-1.3052,-1.3162,-1.3058,-1.3029,-1.3049,-1.3045,-1.3129,-1.3139,-1.3166,-1.3297,-1.3302,-1.3196,-1.32,-1.3204,-1.3206,0,0,0,0,0,0,0,-1.2842,-1.2859,-1.3029,-1.2984,-1.2985,-1.2975,-1.2986,-1.3072,-1.3098,-1.3031,-1.3029,-1.3042,-1.3129,-1.3159,-1.3169,-1.3303,-1.3195,-1.3202,-1.3207,-1.321,-1.3538,-1.3542,0,0,0,0,0,0,-1.2834,-1.2853,-1.3026,-1.3032,-1.2906,-1.2983,-1.2995,-1.3038,-1.3097,-1.3103,-1.3045,-1.304,-1.3148,-1.316,-1.3173,-1.3319,-1.3204,-1.3211,-1.3215,-1.3534,-1.3539,-1.3544,0,0,0,0,0,0,-1.2829,-1.285,-1.3021,-1.2942,-1.2963,-1.299,-1.3039,-1.3042,-1.3072,-1.3107,-1.3112,-1.3071,-1.3145,-1.3162,-1.3262,-1.3322,-1.3214,-1.3222,-1.353,-1.3536,-1.3541,-1.3612,0,0,0,0,0,0,-1.2822,-1.2848,-1.2895,-1.2943,-1.2967,-1.311,-1.3043,-1.3046,-1.3086,-1.308,-1.3133,-1.3139,-1.3144,-1.3251,-1.327,-1.3331,-1.3228,-1.3524,-1.3532,-1.3539,-1.3604,-1.362,-1.3633,0,0,0,0,0,-1.2814,-1.2911,-1.2897,-1.2918,-1.3026,-1.3113,-1.3127,-1.3131,-1.309,-1.3138,-1.316,-1.3137,-1.3312,-1.3262,-1.3283,-1.3347,-1.3521,-1.353,-1.3539,-1.3598,-1.3617,-1.3632,0,0,0,0,0,0,-1.2869,-1.2917,-1.2903,-1.3018,-1.3062,-1.3107,-1.3166,-1.315,-1.3207,-1.3199,-1.3201,-1.3214,-1.3318,-1.3342,-1.3285,-1.3467,-1.341,-1.3424,-1.3448,-1.3466,-1.348,-1.3473,-1.3234,0,0,0,0,0,-1.2894,-1.2961,-1.2999,-1.3097,-1.312,-1.3139,-1.3177,-1.3176,-1.3222,-1.324,-1.327,-1.3316,-1.3381,-1.3424,-1.3486,-1.3606,-1.3618,-1.366,-1.3674,-1.3686,-1.3699,-1.3765,-1.3785,-1.3573,-1.3573,-1.3573,0,0,-1.2948,-1.2982,-1.3025,-1.3109,-1.3143,-1.3212,-1.3155,-1.3231,-1.3283,-1.3252,-1.335,-1.3372,-1.3424,-1.3535,-1.3585,-1.3558,-1.3759,-1.3697,-1.3706,-1.3713,-1.3776,-1.3796,-1.3814,-1.358,-1.3578,-1.3577,0,0,-1.3082,-1.3114,-1.3199,-1.3234,-1.3285,-1.3297,-1.3317,-1.3365,-1.3379,-1.3476,-1.3454,-1.3515,-1.3627,-1.3665,-1.3699,-1.3844,-1.3826,-1.3864,-1.3939,-1.4003,-1.4019,-1.4034,-1.4088,-1.4107,-1.3876,-1.3876,-1.3876,0,-1.3142,-1.3246,-1.3245,-1.3323,-1.3361,-1.3334,-1.3421,-1.3455,-1.3524,-1.3551,-1.3519,-1.3659,-1.3691,-1.3811,-1.3847,-1.3874,-1.3898,-1.3859,-1.4017,-1.4032,-1.4046,-1.4097,-1.4117,-1.388,-1.388,-1.3879,-1.3879,0,-1.3319,-1.339,-1.3453,-1.352,-1.3565,-1.3647,-1.3658,-1.3703,-1.3697,-1.3712,-1.3812,-1.3849,-1.3918,-1.3945,-1.3941,-1.4065,-1.4047,-1.4016,-1.396,-1.407,-1.4118,-1.4138,-1.3887,-1.3885,-1.3884,-1.3883,0,0,-1.3494,-1.3557,-1.3581,-1.3611,-1.3665,-1.3721,-1.38,-1.3867,-1.3907,-1.3954,-1.4022,-1.4116,-1.4088,-1.4126,-1.4124,-1.418,-1.4295,-1.4143,-1.4144,-1.4171,-1.4435,-1.446,-1.4483,-1.4281,-1.4285,-1.4288,-1.4432,0,-1.3633,-1.3774,-1.3775,-1.3905,-1.3972,-1.3946,-1.4016,-1.4056,-1.4072,-1.4131,-1.4147,-1.4215,-1.4171,-1.4194,-1.4248,-1.4269,-1.4348,-1.4258,-1.4346,-1.4349,-1.4337,-1.4508,-1.4535,-1.4669,-1.445,-1.4453,-1.4455,0,-1.3816,-1.3869,-1.4006,-1.405,-1.4078,-1.4141,-1.4202,-1.4258,-1.4303,-1.431,-1.4352,-1.4341,-1.4422,-1.4361,-1.4474,-1.4413,-1.4448,-1.4463,-1.4468,-1.4479,-1.4411,-1.4525,-1.4712,-1.4733,-1.4485,-1.4482,-1.448,0,-1.3933,-1.4038,-1.4134,-1.416,-1.4212,-1.4257,-1.4281,-1.4323,-1.4363,-1.4415,-1.4441,-1.4503,-1.4537,-1.4585,-1.4591,-1.4545,-1.4705,-1.4644,-1.4714,-1.4715,-1.4752,-1.475,-1.4949,-1.477,-1.477,-1.4769,-1.4769,0,-1.409,-1.4176,-1.4187,-1.4246,-1.434,-1.4339,-1.4433,-1.4453,-1.4489,-1.4552,-1.4532,-1.4591,-1.4594,-1.4655,-1.466,-1.4753,-1.4768,-1.4777,-1.4778,-1.4781,-1.478,-1.4806,-1.4798,-1.4775,-1.4773,-1.4772,-1.4771,0,-1.4238,-1.4249,-1.4352,-1.4392,-1.4404,-1.4472,-1.4507,-1.4564,-1.4576,-1.4655,-1.4674,-1.4694,-1.4764,-1.4773,-1.4856,-1.4859,-1.4971,-1.4961,-1.4957,-1.4956,-1.5027,-1.5021,-1.5252,-1.5283,-1.5081,-1.5083,-1.5085,0,-1.434,-1.4405,-1.4452,-1.4492,-1.4519,-1.4584,-1.4624,-1.4624,-1.4667,-1.4722,-1.4772,-1.4839,-1.4894,-1.5007,-1.5029,-1.5092,-1.5085,-1.5161,-1.5094,-1.5095,-1.5088,-1.5086,-1.5093,-1.5175,-1.5177,-1.5179,-1.5181,0,-1.452,-1.4522,-1.458,-1.4641,-1.4689,-1.4737,-1.4781,-1.4815,-1.4821,-1.487,-1.4941,-1.4983,-1.5066,-1.5135,-1.5196,-1.522,-1.5203,-1.5201,-1.5221,-1.5226,-1.5222,-1.5227,-1.4995,-1.5196,-1.5195,-1.5194,-1.5193,-1.5192,-1.465,-1.4706,-1.4748,-1.4814,-1.4847,-1.4889,-1.4944,-1.4962,-1.5022,-1.509,-1.5085,-1.5164,-1.5206,-1.5286,-1.5315,-1.5376,-1.5351,-1.538,-1.5388,-1.5396,-1.5404,-1.5209,-1.5387,-1.5387,-1.5386,-1.5386,-1.5385,0,-1.4831,-1.4856,-1.4916,-1.4979,-1.503,-1.5006,-1.5054,-1.5099,-1.5169,-1.5209,-1.5263,-1.5344,-1.5409,-1.5435,-1.5499,-1.5543,-1.5536,-1.556,-1.5559,-1.5565,-1.5421,-1.5399,-1.5565,-1.5565,-1.5565,-1.5565,-1.5564,-1.5564,-1.4931,-1.5026,-1.5032,-1.5143,-1.5167,-1.5244,-1.5273,-1.5312,-1.5344,-1.5436,-1.549,-1.5505,-1.554,-1.5606,-1.5664,-1.567,-1.5696,-1.5724,-1.5726,-1.5593,-1.5575,-1.5558,-1.5536,-1.5729,-1.5729,-1.5865,-1.5866,-1.5867]},{"header":{"parameterUnit":"m.s-1","parameterCategory":1,"la1":30.2991,"la2":30.254,"lo1":-89.0895,"lo2":-89.0444,"dy":0.0017,"dx":0.0017,"nx":28,"ny":28,"refTime":"2023-10-31T03:00:00:Z","depth":0,"parameterNumber":3,"parameterNumberName":"V-component_of_WINDS"},"data":[0,0,0,0,0,0,0,0,0,0,0,0,0,0,0,0,0,0,0,0,0,0,0,0,0,0,0,0,0,0,0,0,0,0,0,0,0,0,0,0,0,0,0,0,0,0,0,0,0,0,0,0,0,0,0,0,0,0,-8.904,-8.9042,0,-8.9247,-8.925,-8.9252,-8.9141,-8.9135,-8.9129,-8.9124,-8.9328,-8.9338,-8.9349,0,0,0,0,0,0,0,0,0,0,0,0,0,-8.8538,-8.8548,-8.904,-8.9042,-8.9045,-8.9247,-8.925,-8.9253,-8.9142,-8.9135,-8.9128,-8.9122,-8.9324,-8.9337,-8.935,0,0,0,0,0,0,0,0,0,0,0,0,0,-8.8752,-8.8551,-8.9039,-8.9014,-8.9014,-8.9246,-8.925,-8.9253,-8.9143,-8.9135,-8.9126,-8.9118,-8.932,-8.9336,-8.9351,-8.9618,0,0,-8.94,-8.9407,0,0,0,0,0,0,0,0,-8.874,-8.877,-8.9015,-8.9016,-8.9017,-8.916,-8.9147,-8.9375,-8.9145,-8.9094,-8.9124,-8.9114,-8.9278,-8.9297,-8.9354,-8.9627,-8.9636,-8.9401,-8.9411,-8.9418,-8.9423,0,0,0,0,0,0,0,-8.8725,-8.8761,-8.9121,-8.9019,-8.902,-8.8989,-8.901,-8.919,-8.923,-8.9098,-8.909,-8.9117,-8.9277,-8.9339,-8.9358,-8.9639,-8.9401,-8.9415,-8.9425,-8.9431,-9.0139,-9.0148,0,0,0,0,0,0,-8.8713,-8.8749,-8.9115,-8.9128,-8.8855,-8.9005,-8.9029,-8.9122,-8.9228,-8.9236,-8.9123,-8.9111,-8.9316,-8.9339,-8.9365,-8.9683,-8.9418,-8.9433,-8.9442,-9.013,-9.0142,-9.0151,0,0,0,0,0,0,-8.8703,-8.8747,-8.9107,-8.8937,-8.898,-8.9023,-8.9128,-8.9131,-8.9193,-8.9248,-8.9253,-8.9181,-8.931,-8.9342,-8.9556,-8.9689,-8.944,-8.9455,-9.0119,-9.0134,-9.0147,-9.0323,0,0,0,0,0,0,-8.8689,-8.8744,-8.8848,-8.894,-8.899,-8.9298,-8.9137,-8.9141,-8.9222,-8.9207,-8.9303,-8.931,-8.9306,-8.9533,-8.9572,-8.9706,-8.9467,-9.0108,-9.0126,-9.0142,-9.0306,-9.0342,-9.0372,0,0,0,0,0,-8.8671,-8.8888,-8.8854,-8.8899,-8.9121,-8.9306,-8.9334,-8.9327,-8.9233,-8.9336,-8.9371,-8.9307,-8.9668,-8.9556,-8.9599,-8.974,-9.0099,-9.0121,-9.0141,-9.0291,-9.0335,-9.0371,0,0,0,0,0,0,-8.8807,-8.8899,-8.8863,-8.9116,-8.9205,-8.9287,-8.9418,-8.9374,-8.9489,-8.947,-8.9453,-8.9476,-8.9698,-8.974,-8.9613,-9.0002,-8.9868,-8.9899,-8.9968,-9.001,-9.0042,-9.0028,-8.948,0,0,0,0,0,-8.8867,-8.9013,-8.9084,-8.93,-8.9347,-8.9375,-8.9455,-8.9442,-8.9532,-8.9568,-8.9618,-8.9705,-8.9838,-8.9926,-9.0051,-9.0311,-9.0329,-9.0429,-9.0462,-9.0489,-9.0515,-9.0655,-9.07,-9.022,-9.022,-9.0219,0,0,-8.8992,-8.906,-8.9152,-8.9329,-8.9396,-8.9545,-8.9407,-8.957,-8.9679,-8.9591,-8.9798,-8.9838,-8.9933,-9.0171,-9.0279,-9.0213,-9.0652,-9.0515,-9.0536,-9.0549,-9.0681,-9.0726,-9.0767,-9.0234,-9.0231,-9.0229,0,0,-8.9295,-8.9362,-8.9549,-8.962,-8.9724,-8.9741,-8.9786,-8.9876,-8.99,-9.0107,-9.0044,-9.0171,-9.0401,-9.0472,-9.0538,-9.0867,-9.0811,-9.0907,-9.1081,-9.1217,-9.1255,-9.1288,-9.1405,-9.1447,-9.0933,-9.0934,-9.0934,0,-8.9436,-8.966,-8.965,-8.9819,-8.9898,-8.9828,-9.0016,-9.0084,-9.0222,-9.0277,-9.0202,-9.0488,-9.0547,-9.0801,-9.0881,-9.0937,-9.0986,-9.0897,-9.1251,-9.1284,-9.1315,-9.1426,-9.147,-9.0945,-9.0943,-9.0942,-9.0941,0,-8.9828,-8.9984,-9.0122,-9.0262,-9.0355,-9.0533,-9.0547,-9.0643,-9.0621,-9.0646,-9.0856,-9.0925,-9.1062,-9.1121,-9.11,-9.1372,-9.1328,-9.1252,-9.1117,-9.1372,-9.1476,-9.1519,-9.0961,-9.0957,-9.0953,-9.0951,0,0,-9.0224,-9.0355,-9.0407,-9.0469,-9.0578,-9.0697,-9.0869,-9.1007,-9.1089,-9.1186,-9.1329,-9.1524,-9.1455,-9.153,-9.1516,-9.1636,-9.1892,-9.1545,-9.1547,-9.1608,-9.2194,-9.2251,-9.2301,-9.1855,-9.1863,-9.187,-9.2186,0,-9.0534,-9.0841,-9.0837,-9.1119,-9.1262,-9.1197,-9.1347,-9.1429,-9.1456,-9.1578,-9.1605,-9.1745,-9.1643,-9.1688,-9.1803,-9.1836,-9.2009,-9.1813,-9.1986,-9.1993,-9.1966,-9.2355,-9.2416,-9.2711,-9.2226,-9.2233,-9.2238,0,-9.0939,-9.1053,-9.1351,-9.1439,-9.1498,-9.1634,-9.1759,-9.1878,-9.1968,-9.1978,-9.2063,-9.203,-9.2202,-9.2062,-9.2297,-9.2164,-9.2234,-9.2261,-9.2272,-9.2289,-9.2132,-9.2383,-9.2805,-9.285,-9.2302,-9.2297,-9.2293,0,-9.1198,-9.1425,-9.1633,-9.1688,-9.1795,-9.1892,-9.1941,-9.2023,-9.2105,-9.2213,-9.2266,-9.2392,-9.2461,-9.2557,-9.2558,-9.2456,-9.2796,-9.2656,-9.2808,-9.2809,-9.2884,-9.288,-9.3325,-9.2928,-9.2928,-9.2927,-9.2926,0,-9.1546,-9.1731,-9.1751,-9.1879,-9.2083,-9.2075,-9.2276,-9.2315,-9.2388,-9.252,-9.2469,-9.2593,-9.2587,-9.2712,-9.2713,-9.2908,-9.2939,-9.295,-9.2949,-9.2956,-9.2955,-9.3002,-9.2982,-9.2938,-9.2936,-9.2934,-9.2932,0,-9.1872,-9.1893,-9.2115,-9.2199,-9.2224,-9.2371,-9.2441,-9.2561,-9.2582,-9.275,-9.2789,-9.2822,-9.2966,-9.2977,-9.3142,-9.3143,-9.338,-9.3355,-9.3351,-9.3347,-9.3499,-9.3485,-9.3991,-9.4056,-9.3617,-9.3621,-9.3624,0,-9.2093,-9.2234,-9.2334,-9.2421,-9.2476,-9.2615,-9.27,-9.2695,-9.2785,-9.2898,-9.3004,-9.3144,-9.3256,-9.3489,-9.3526,-9.3652,-9.363,-9.3798,-9.3648,-9.3651,-9.3633,-9.3625,-9.3639,-9.3828,-9.3833,-9.3837,-9.384,0,-9.2484,-9.2487,-9.2613,-9.2744,-9.2847,-9.2948,-9.3042,-9.3115,-9.3121,-9.3224,-9.3373,-9.346,-9.363,-9.3769,-9.3893,-9.3938,-9.3891,-9.3887,-9.3929,-9.3938,-9.3931,-9.3937,-9.3431,-9.3875,-9.3872,-9.3869,-9.3867,-9.3866,-9.2765,-9.2887,-9.2977,-9.3118,-9.3189,-9.3278,-9.3396,-9.3432,-9.3557,-9.3698,-9.3687,-9.3851,-9.3935,-9.4096,-9.4152,-9.4278,-9.422,-9.4281,-9.4297,-9.4312,-9.4328,-9.391,-9.43,-9.4299,-9.4298,-9.4297,-9.4296,0,-9.3153,-9.3208,-9.3338,-9.3473,-9.3584,-9.3531,-9.3632,-9.3728,-9.3874,-9.3958,-9.407,-9.424,-9.4374,-9.4422,-9.4551,-9.4643,-9.4624,-9.4678,-9.4671,-9.4682,-9.4372,-9.4323,-9.4691,-9.4691,-9.4691,-9.4691,-9.469,-9.469,-9.3369,-9.3573,-9.3587,-9.3825,-9.3877,-9.404,-9.4102,-9.4183,-9.425,-9.4444,-9.4556,-9.4587,-9.4656,-9.479,-9.491,-9.492,-9.497,-9.5033,-9.5034,-9.4744,-9.4704,-9.4666,-9.462,-9.5044,-9.5045,-9.5334,-9.5336,-9.5338]}]]